Stations météo

réclame
Mon MeteoGroup
Barcelona/Aeropuerto, Espagne (8181): Température de l'air & dewpoint: 13.12.2018 15:00:00 - 19.12.2018 15:00:00 (CET)Barcelona/Aeropuerto, Espagne (8181): Vitesse du vent: 13.12.2018 15:00:00 - 19.12.2018 15:00:00 (CET)Barcelona/Aeropuerto, Espagne (8181): Direction du vent: 13.12.2018 15:00:00 - 19.12.2018 15:00:00 (CET)Barcelona/Aeropuerto, Espagne (8181): reduced air pressure: 13.12.2018 15:00:00 - 19.12.2018 15:00:00 (CET)Barcelona/Aeropuerto, Espagne (8181): visibility: 13.12.2018 15:00:00 - 19.12.2018 15:00:00 (CET)Barcelona/Aeropuerto, Espagne (8181): Quantités de précipitations: 13.12.2018 15:00:00 - 19.12.2018 15:00:00 (CET)
Date & Time tt [°C] td [°C] ff [km/h] ff [knt] dd ppp [hPa] vv [km] rr [mm]
19.12.2018 15:00:00 17,6 3,2 28 15 W 1017,6 30 -
19.12.2018 14:00:00 17,7 3,8 29 16 WNW 1017,8 30 -
19.12.2018 13:00:00 18,1 5,4 28 15 WNW 1017,9 40 -
19.12.2018 12:00:00 17,0 9,6 13 7 WSW 1019,0 30 -
19.12.2018 11:00:00 14,3 9,1 4 2 NW 1019,6 30 -
19.12.2018 10:00:00 - - - - - - - -
19.12.2018 09:00:00 - - - - - - - -
19.12.2018 08:00:00 - - - - - - - -
19.12.2018 07:00:00 - - 9 5 N - 23 -
19.12.2018 06:00:00 - - - - - - - -
19.12.2018 05:00:00 - - - - - - - -
19.12.2018 04:00:00 - - 9 5 N - 10 0,0
19.12.2018 03:00:00 - - - - - - - -
19.12.2018 02:00:00 - - - - - - - -
19.12.2018 01:00:00 - - - - - - - -
19.12.2018 00:00:00 11,3 9,0 5 3 N 1021,4 17 -
18.12.2018 23:00:00 11,8 9,4 0 0 N 1021,7 23 -
18.12.2018 22:00:00 11,3 9,2 8 4 N 1021,8 24 -
18.12.2018 21:00:00 12,2 9,6 9 5 W 1022,0 30 -
18.12.2018 20:00:00 12,2 9,8 15 8 W 1022,2 30 -
18.12.2018 19:00:00 11,9 9,3 11 6 W 1021,8 30 -
18.12.2018 18:00:00 12,1 8,8 11 6 W 1022,1 28 -
18.12.2018 17:00:00 13,6 9,0 18 10 W 1022,1 30 -
18.12.2018 16:00:00 14,6 10,0 15 8 WSW 1022,0 25 -
18.12.2018 15:00:00 15,1 9,9 18 10 WSW 1022,3 29 -
18.12.2018 14:00:00 14,5 9,8 15 8 WSW 1023,2 30 -
18.12.2018 13:00:00 14,0 9,2 16 9 WSW 1024,0 30 -
18.12.2018 12:00:00 14,3 9,1 11 6 W 1024,8 30 -
18.12.2018 11:00:00 9,1 5,3 5 3 NNW 1025,8 16 -
18.12.2018 10:00:00 7,0 3,9 13 7 NNW 1025,9 20 -
18.12.2018 09:00:00 5,8 3,5 4 2 NNW 1025,8 14 -
18.12.2018 08:00:00 5,3 3,0 13 7 N 1025,7 17 -
18.12.2018 07:00:00 5,7 3,2 11 6 N 1026,0 25 -
18.12.2018 06:00:00 6,1 3,5 15 8 N 1026,3 28 -
18.12.2018 05:00:00 5,9 3,6 16 9 N 1027,1 21 -
18.12.2018 04:00:00 6,5 4,0 21 11 N 1027,9 20 -
18.12.2018 03:00:00 6,8 4,3 16 9 N 1028,2 16 -
18.12.2018 02:00:00 7,2 4,5 16 9 N 1028,4 23 -
18.12.2018 01:00:00 7,9 4,7 16 9 N 1028,8 25 -
18.12.2018 00:00:00 8,5 4,7 13 7 N 1029,4 28 -
17.12.2018 23:00:00 8,8 4,8 11 6 N 1029,9 28 -
17.12.2018 22:00:00 9,3 4,7 13 7 N 1029,5 30 -
17.12.2018 21:00:00 9,2 4,7 11 6 N 1029,6 25 -
17.12.2018 20:00:00 10,0 4,6 8 4 NW 1029,6 30 -
17.12.2018 19:00:00 11,4 4,6 15 8 N 1028,8 30 -
17.12.2018 18:00:00 12,0 4,5 18 10 N 1027,9 30 -
17.12.2018 17:00:00 12,6 4,8 13 7 N 1027,6 30 -
17.12.2018 16:00:00 14,2 5,1 15 8 NNW 1027,5 30 -
17.12.2018 15:00:00 14,5 5,9 11 6 W 1027,0 30 -
17.12.2018 14:00:00 14,5 4,6 11 6 N 1026,6 30 -
17.12.2018 13:00:00 14,7 3,9 16 9 N 1026,4 35 -
17.12.2018 12:00:00 13,0 4,0 21 11 N 1026,8 24 -
17.12.2018 11:00:00 11,7 4,1 21 11 N 1027,3 30 -
17.12.2018 10:00:00 10,4 4,1 18 10 N 1026,9 30 -
17.12.2018 09:00:00 9,3 3,6 15 8 NNE 1026,2 30 -
17.12.2018 08:00:00 8,8 3,6 16 9 N 1025,0 30 -
17.12.2018 07:00:00 9,5 3,5 18 10 NNE 1023,5 30 -
17.12.2018 06:00:00 9,8 3,5 26 14 N 1022,3 30 -
17.12.2018 05:00:00 10,3 3,5 22 12 N 1021,6 30 -
17.12.2018 04:00:00 10,8 3,8 24 13 N 1021,0 30 -
17.12.2018 03:00:00 12,1 3,8 22 12 NNW 1020,8 30 -
17.12.2018 02:00:00 13,0 2,9 18 10 NW 1019,7 30 -
17.12.2018 01:00:00 13,2 2,9 29 16 WNW 1018,8 30 -
17.12.2018 00:00:00 14,2 3,0 35 19 WNW 1018,4 30 -
16.12.2018 23:00:00 13,1 5,9 11 6 W 1018,3 30 -
16.12.2018 22:00:00 14,3 7,3 18 10 W 1017,8 30 -
16.12.2018 21:00:00 13,3 8,4 15 8 W 1017,3 30 -
16.12.2018 20:00:00 14,9 9,7 5 3 ENE 1016,3 30 -
16.12.2018 19:00:00 14,1 10,9 2 1 SW 1015,9 30 -
16.12.2018 18:00:00 13,4 10,0 13 7 NW 1015,7 29 -
16.12.2018 17:00:00 15,1 11,1 16 9 SW 1014,9 24 -
16.12.2018 16:00:00 14,8 10,4 4 2 SSW 1014,7 22 -
16.12.2018 15:00:00 14,1 9,5 5 3 NNE 1014,8 23 -
16.12.2018 14:00:00 13,8 9,3 4 2 NNE 1015,7 21 -
16.12.2018 13:00:00 13,8 9,2 9 5 NNE 1016,3 22 -
16.12.2018 12:00:00 13,7 9,3 13 7 N 1017,4 26 -
16.12.2018 11:00:00 13,5 9,0 13 7 N 1017,8 30 -
16.12.2018 10:00:00 12,3 8,4 4 2 NNW 1017,7 30 -
16.12.2018 09:00:00 12,0 8,5 8 4 N 1017,3 30 -
16.12.2018 08:00:00 11,3 8,2 16 9 N 1017,2 30 -
16.12.2018 07:00:00 12,2 8,5 16 9 NNE 1017,0 30 -
16.12.2018 06:00:00 11,7 8,2 4 2 NNW 1016,8 30 -
16.12.2018 05:00:00 11,9 8,4 11 6 N 1016,9 25 -
16.12.2018 04:00:00 11,9 8,6 11 6 N 1017,1 30 -
16.12.2018 03:00:00 11,7 8,5 13 7 N 1017,4 30 -
16.12.2018 02:00:00 10,6 7,8 9 5 NE 1017,7 27 -
16.12.2018 01:00:00 10,7 7,6 13 7 N 1018,6 30 -
16.12.2018 00:00:00 10,8 7,5 9 5 N 1019,1 20 -
15.12.2018 23:00:00 10,7 7,8 0 0 N 1019,5 22 -
15.12.2018 22:00:00 10,9 7,8 13 7 N 1019,7 28 -
15.12.2018 21:00:00 11,0 7,9 11 6 N 1020,3 22 -
15.12.2018 20:00:00 11,2 8,1 13 7 N 1020,5 19 -
15.12.2018 19:00:00 12,1 7,6 0 0 N 1020,4 20 -
15.12.2018 18:00:00 12,3 7,8 4 2 NNW 1020,0 27 -
15.12.2018 17:00:00 13,6 7,8 0 0 N 1019,9 30 -
15.12.2018 16:00:00 14,2 8,2 0 0 N 1020,2 27 -
15.12.2018 15:00:00 13,9 7,7 5 3 SW 1020,2 30 -
15.12.2018 14:00:00 14,4 7,0 4 2 NW 1020,9 30 -
15.12.2018 13:00:00 13,2 6,4 9 5 N 1021,7 20 -
15.12.2018 12:00:00 12,7 6,5 16 9 N 1022,7 28 -
15.12.2018 11:00:00 12,0 5,9 15 8 NNW 1022,8 30 -
15.12.2018 10:00:00 9,9 5,9 13 7 NNE 1022,7 20 -
15.12.2018 09:00:00 8,2 5,3 11 6 N 1022,3 30 -
15.12.2018 08:00:00 7,9 5,2 13 7 N 1021,7 30 -
15.12.2018 07:00:00 7,4 5,2 2 1 WSW 1021,3 24 -
15.12.2018 06:00:00 9,2 5,6 28 15 N 1020,8 30 -
15.12.2018 05:00:00 7,9 5,7 13 7 N 1020,9 22 -
15.12.2018 04:00:00 8,5 5,9 16 9 N 1020,8 30 -
15.12.2018 03:00:00 8,4 6,0 13 7 N 1020,6 28 -
15.12.2018 02:00:00 8,5 6,1 11 6 N 1020,1 21 -
15.12.2018 01:00:00 10,3 6,4 13 7 N 1020,3 30 -
15.12.2018 00:00:00 8,4 7,0 11 6 N 1020,2 15 -
14.12.2018 23:00:00 9,0 7,4 13 7 NNE 1019,8 18 -
14.12.2018 22:00:00 9,6 8,0 13 7 N 1019,5 20 -
14.12.2018 21:00:00 9,6 8,4 13 7 N 1018,9 15 -
14.12.2018 20:00:00 10,0 8,4 4 2 N 1018,3 16 -
14.12.2018 19:00:00 10,7 9,0 0 0 N 1017,8 25 -
14.12.2018 18:00:00 12,3 9,3 0 0 N 1017,7 25 -
14.12.2018 17:00:00 14,0 9,3 9 5 S 1016,9 30 -
14.12.2018 16:00:00 14,2 8,9 5 3 S 1016,8 25 -
14.12.2018 15:00:00 14,0 8,8 5 3 SSW 1016,1 25 -
14.12.2018 14:00:00 15,4 9,2 8 4 SSW 1015,5 28 -
14.12.2018 13:00:00 13,6 8,0 5 3 N 1015,6 25 -
14.12.2018 12:00:00 12,6 8,3 9 5 NNE 1015,9 30 -
14.12.2018 11:00:00 11,0 8,2 13 7 N 1015,6 27 -
14.12.2018 10:00:00 11,4 8,4 13 7 NNE 1014,4 18 -
14.12.2018 09:00:00 9,7 8,0 9 5 NE 1012,9 17 -
14.12.2018 08:00:00 9,7 7,8 13 7 N 1011,8 19 -
14.12.2018 07:00:00 10,0 8,0 16 9 N 1010,8 18 -
14.12.2018 06:00:00 9,7 8,3 15 8 N 1009,6 12 -
14.12.2018 05:00:00 9,8 8,6 13 7 N 1009,2 11 -
14.12.2018 04:00:00 9,8 8,7 18 10 NNE 1008,8 9 -
14.12.2018 03:00:00 9,8 8,7 18 10 N 1008,2 8 -
14.12.2018 02:00:00 10,1 8,5 16 9 NNE 1007,5 7 -
14.12.2018 01:00:00 9,8 8,6 11 6 N 1006,9 8 -
14.12.2018 00:00:00 9,8 8,6 13 7 N 1006,4 8 -
13.12.2018 23:00:00 9,7 8,8 16 9 N 1005,4 7 -
13.12.2018 22:00:00 9,9 9,0 5 3 NNW 1005,0 7 -
13.12.2018 21:00:00 10,0 9,2 11 6 N 1004,8 6 -
13.12.2018 20:00:00 10,1 9,3 8 4 N 1004,2 - -
13.12.2018 19:00:00 10,4 9,5 8 4 N 1003,7 4,8 -
13.12.2018 18:00:00 10,7 9,8 8 4 N 1004,2 4,4 -
13.12.2018 17:00:00 10,8 9,6 8 4 N 1004,0 6 -
13.12.2018 16:00:00 10,7 9,6 8 4 NNE 1004,2 5 -
13.12.2018 15:00:00 10,9 9,7 11 6 N 1004,3 5 -

tt = Température de l'air
td = dewpoint
ff = Vitesse du vent
dd = Direction du vent
ppp = reduced air pressure
vv = visibility
rr = Quantités de précipitations

stations d'obs. à proximité